Flag for U.S.A. Weather past 2 weeks in Newark, New Jersey, U.S.A.

Now
77 °F

Broken clouds.


Feels Like: 79 °F
Forecast: 69 / 82 °F
Wind: 7 mph from South

Location: Newark International Airport

Current Time: Jul 2, 2015 at 6:12:49 PM

Latest Report: Jul 2, 2015 at 4:51 PM


Visibility: 10 mi

Pressure: 29.86 "Hg

Humidity: 52%

Dew point: 58 °F

Location of NewarkLocation

Historic Weather in Newark — Graph

°F

Newark temperature yesterday

Maximum temperature yesterday: 84 °F (at 3:56 PM)
Minimum temperature yesterday: 70 °F (at 4:51 AM)
Average temperature yesterday: 77 °F

Past Weeks' High & Low Weather Summary

 TemperatureHumidityPressure
High92 °F (Jun 23, 4:51 PM)100% (Jun 21, 3:58 AM)30.13 "Hg (Jun 21, 3:58 AM)
Low61 °F (Jun 27, 8:51 PM)31% (Jun 25, 12:51 PM)29.65 "Hg (Jun 28, 5:51 AM)
Average74 °F66%29.92 "Hg
* Reported Jun 17 3:51 PM — Jul 2 3:51 PM, Newark, Weather by CustomWeather, © 2015

Note: Actual official high and low records may vary slightly from our data, if they occured in-between our weather recording intervals... More about our weather records

Advertising

Newark weather history for previous 24 hours

 ConditionsComfort  
Time TempWeatherWind HumidityBarometerVisibility
3:51 PM
Thu, Jul 2
77 °FMostly cloudy.7 mph54%29.87 "Hg10 mi
2:51 PM79 °FMostly cloudy.8 mph50%29.88 "Hg10 mi
1:51 PM81 °FBroken clouds.3 mph47%29.88 "Hg10 mi
12:51 PM80 °FBroken clouds.7 mph47%29.88 "Hg10 mi
11:51 AM79 °FBroken clouds.8 mph48%29.89 "Hg10 mi
10:51 AM77 °FBroken clouds.3 mph54%29.91 "Hg10 mi
9:51 AM76 °FBroken clouds.10 mph54%29.91 "Hg10 mi
8:51 AM73 °FBroken clouds.7 mph57%29.91 "Hg10 mi
7:51 AM72 °FBroken clouds.6 mph59%29.90 "Hg10 mi
6:51 AM71 °FPartly sunny.6 mph66%29.89 "Hg10 mi
5:51 AM68 °FPassing clouds.No wind76%29.88 "Hg10 mi
4:51 AM69 °FPassing clouds.3 mph73%29.86 "Hg10 mi
3:51 AM69 °FPassing clouds.No wind73%29.87 "Hg10 mi
2:51 AM71 °FPassing clouds.No wind68%29.87 "Hg10 mi
1:51 AM71 °FClear.6 mph68%29.87 "Hg10 mi
12:51 AM74 °FHigh level clouds.10 mph62%29.87 "Hg10 mi
11:51 PM
Wed, Jul 1
76 °FHigh level clouds.9 mph58%29.86 "Hg10 mi
10:51 PM78 °FOvercast.13 mph52%29.86 "Hg10 mi
9:51 PM79 °FPassing clouds.8 mph50%29.85 "Hg10 mi
8:51 PM79 °FPartly sunny.9 mph48%29.82 "Hg10 mi
7:51 PM81 °FPartly sunny.16 mph45%29.79 "Hg10 mi
6:51 PM83 °FBroken clouds.14 mph48%29.77 "Hg10 mi
Weather by CustomWeather, © 2015

See weather overviewHow to use our weather pages